Woman Race

La Liégeoise - Liège (3.00 km)

dimanche 08 mars 2020

Vous pouvez trouver Le classement original sur : http://ultratiming.be
WOMAN RACE
LA LIÉGEOISE - LIÈGE
DISTANCE 3.00 km
dimanche 08 mars 2020
 
Place dos Nom Temps Temps/km Vitesse
01:00:00          
1 3288 COLVEZ CAROLE 0:15:46 05:16 11.40
2 3306 BASARTE Y ESTEBAN AÏNOA 0:17:07 05:43 10.50
3 3172 FARDEAU ALEXANDRA 0:17:40 05:54 10.17
4 3300 LEENDERS MARIE 0:19:09 06:24 9.39
5 3117 FANIEL PAULINE 0:19:28 06:30 9.23
6 3296 SPAGNOLI ROMY 0:19:33 06:32 9.19
7 3312 BRUYNS ALISSA 0:20:13 06:45 8.89
8 3190 ERPICUM MAELLE 0:20:55 06:59 8.59
9 3286 COURARD CHARLOTTE 0:21:12 07:05 8.48
10 9540 BERTRAND ISABELLE 0:21:17 07:06 8.45
11 3346 CAPEL SOPHIE 0:21:40 07:14 8.30
12 3113 BONSIGNE PAULINE 0:21:53 07:18 8.21
13 3311 TOMBU MÉLIA 0:22:02 07:21 8.16
14 3211 DEBRAZ ELISE 0:22:39 07:34 7.94
15 3204 LEGRAND CÉLINE 0:22:56 07:39 7.84
16 3112 NOIRHOMME CÉLESTINE 0:23:09 07:44 7.76
17 3142 DEVROYE VANESSA 0:23:38 07:53 7.61
18 3051 COIGNON GAËLLE 0:23:45 07:56 7.57
19 3368 GAYET ROMANE 0:23:48 07:57 7.55
20 3214 CHMIEL MANON 0:24:16 08:06 7.41
21 3342 MANNAERT VANESSA 0:24:17 08:06 7.40
22 3028 VINGOLATO GABRIELLE 0:24:20 08:07 7.39
23 3136 ETIENNE ELOINE 0:24:31 08:11 7.33
24 3095 PAULUS CHARLOTTE 0:24:51 08:18 7.23
25 3096 PAULUS JUSTINE 0:24:52 08:18 7.23
26 3147 HAYEZ ALEXIA 0:25:07 08:23 7.16
27 3357 ISMAIL SOPHIE 0:25:09 08:24 7.15
28 3050 BERWAERTS JULIETTE 0:25:25 08:29 7.07
29 3066 JORSSEN MARIE 0:25:31 08:31 7.04
30 3065 DE LUCA CASSANDRA 0:25:41 08:34 7.00
31 3248 CALDERON VIRGINIE 0:25:43 08:35 6.99
32 3001 WELSCH ELSA 0:25:45 08:36 6.98
33 3255 JENNOTTE LUCIE 0:25:50 08:37 6.96
34 3254 JENNOTTE LÉA 0:25:50 08:37 6.96
35 3148 HAYEZ MAURINE 0:25:59 08:40 6.92
36 3167 LEGRAND VALERIE 0:25:59 08:40 6.92
37 3194 ROSEN FLORENCE 0:26:00 08:41 6.91
38 3174 TALBOT MATHILDE 0:26:00 08:41 6.91
39 3146 MOHR SEVERINE 0:26:00 08:41 6.91
40 3175 PASQUASY YSALINE 0:26:01 08:41 6.91
41 3165 DELBROUCK ELODIE 0:26:01 08:41 6.91
42 3287 RAFFAELLI MARTINE 0:26:02 08:41 6.90
43 3347 DEBATTY MURIEL 0:26:05 08:42 6.89
44 3123 GALERE AMIRA 0:26:08 08:43 6.88
45 3229 HAGELSTEIN MATHILDE 0:26:09 08:44 6.87
46 3231 GERARDY LAURIE 0:26:10 08:44 6.87
47 3228 MARKA NATACHA 0:26:12 08:45 6.86
48 3230 GIAGOUNIDIS ELENI 0:26:13 08:45 6.86
49 3309 DEBIOLLE PAULINE 0:26:19 08:47 6.83
50 3213 GANOZA VALENZUELA MARIA ISABEL 0:26:31 08:51 6.78
51 3371 MAESSEN MANON 0:26:33 08:52 6.77
52 3079 LAMY VALERIE 0:26:41 08:54 6.74
53 3081 THIRY LOUISE 0:26:41 08:54 6.74
54 3082 PAJE STEPHANIE 0:26:42 08:55 6.73
55 3071 KAPCHE ASTRID 0:26:46 08:56 6.72
56 3218 MEWABO NKUITE STÉPHANIE NADEGE 0:26:50 08:57 6.70
57 3216 ROMERO SIMON NOEMI 0:27:01 09:01 6.65
58 3012 OTTENWELTER MARIE 0:27:01 09:01 6.65
59 3035 GRENIER STÉPHANIE 0:27:04 09:02 6.64
60 3034 BRELA CAROLINE 0:27:07 09:03 6.63
61 3161 JONAS NATHALIE 0:27:08 09:03 6.62
62 3164 TOUETTE VALÉRIE 0:27:08 09:03 6.62
63 3207 DE VLEMINCK LEILA 0:27:11 09:04 6.61
64 3111 THOMAS ALIÉNOR 0:27:11 09:04 6.61
65 3250 BURETTE SOPHIE 0:27:12 09:05 6.61
66 3178 PANZA CRISTINA 0:27:15 09:06 6.60
67 3223 PONZO SANDRA 0:27:16 09:06 6.59
68 3339 WELSCHEN LAURE 0:27:18 09:07 6.58
69 3217 SIMON GONZALEZ MARIA 0:27:19 09:07 6.58
70 3224 VERVIER JUSTINE 0:27:24 09:09 6.56
71 3348 D'ORIO VINCIANE 0:27:27 09:10 6.55
72 3350 OLEKSIUK SABRINA 0:27:28 09:10 6.54
73 3247 CLOESEN MELISSA 0:27:30 09:11 6.54
74 3370 DIKENDA ISABELLE 0:27:30 09:11 6.54
75 3242 LAUDICINA OPHELIA 0:27:30 09:11 6.54
76 3336 PARENTE JESSICA 0:27:31 09:11 6.53
77 3124 GALERE EMILIE 0:27:35 09:12 6.52
78 3245 DEFAWE MANON 0:27:37 09:13 6.51
79 3032 BOUCHAT HÉLÈNE 0:27:39 09:14 6.50
80 3063 TIMMERMANS MARGAUX 0:27:44 09:15 6.48
81 3008 NOURI MYRIEM 0:28:01 09:21 6.42
82 3192 CHERAIN MAUD 0:28:11 09:24 6.38
83 3193 SOUGNIER MARILYN 0:28:11 09:24 6.38
84 3097 SALMON MORGANE 0:28:14 09:25 6.37
85 3240 LOCASCIO ROMINA 0:28:17 09:26 6.35
86 3087 LEVOZ MARINE 0:28:19 09:27 6.35
87 3130 AERTS CAPRICE 0:28:19 09:27 6.35
88 3131 AERTS ROMANCE 0:28:19 09:27 6.35
89 3379 SALAMUN MICHÈLE 0:28:23 09:28 6.33
90 3285 CRUTZEN VIRGINIE 0:28:27 09:30 6.32
91 3291 CORMAN MANON 0:28:27 09:30 6.32
92 3284 DALE MARINE 0:28:27 09:30 6.32
93 3047 MATAGNE LAURANE 0:28:31 09:31 6.30
94 3155 DEWYZE JOËLLE 0:28:32 09:31 6.30
95 3098 GRÄTZ HÉLOÏSE 0:28:32 09:31 6.30
96 3099 ALAIN VÉRONIQUE 0:28:33 09:32 6.30
97 3305 MUNGOVI DAVINA 0:28:33 09:32 6.30
98 3369 GRANIER CAROLINE 0:28:33 09:32 6.30
99 3304 PARISI CARMELA 0:28:34 09:32 6.29
100 3154 GANASSIN FLORENCE 0:28:36 09:33 6.28
101 3256 AL ASSOUAD SOPHIE 0:28:36 09:33 6.28
102 3046 DUSSARD MAURINE 0:28:38 09:33 6.28
103 3349 LAIRESSE ALBANE 0:28:45 09:36 6.25
104 3101 FRANZEN RACHELLE 0:28:46 09:36 6.25
105 3301 DANGELO LISA 0:28:47 09:36 6.24
106 3297 MENDES STÉPHANIE 0:28:48 09:37 6.24
107 3177 PONCET ELSA 0:28:54 09:39 6.22
108 3173 CODANDABANY SANGAVI 0:28:54 09:39 6.22
109 3289 SARBERG CLARA 0:28:55 09:39 6.22
110 3092 DUBRU CAMILLE 0:28:58 09:40 6.21
111 3093 PARDINI TIFFANIE 0:28:58 09:40 6.21
112 3059 STELET CHRISTINE 0:28:58 09:40 6.21
113 3088 PIRET JOELLE 0:29:05 09:43 6.18
114 3041 JABLONSKI EMY 0:29:18 09:47 6.13
115 3043 DELCOMMUNE MAUREEN 0:29:18 09:47 6.13
116 3345 BLEVE MARIE CHRISTINE 0:29:19 09:47 6.13
117 3258 MENDOLA DEBORAH 0:29:20 09:48 6.13
118 3257 MENDOLA ELISA 0:29:20 09:48 6.13
119 3103 GARCIA CAROLINE 0:29:21 09:48 6.12
120 3252 BAZIN CAPUCINE 0:29:24 09:49 6.11
121 3029 PÉRALTA CLÉLIA 0:29:25 09:49 6.11
122 3251 BARDOUX ANGÈLE 0:29:26 09:50 6.11
123 3253 DURAND CLÉMENCE 0:29:26 09:50 6.11
124 3104 PONDANT VANESSA 0:29:30 09:51 6.09
125 3084 GREFFE FLORENCE 0:29:30 09:51 6.09
126 3122 BOUHRISS SADIA 0:29:32 09:52 6.09
127 3360 MASSON CHLOÉ 0:29:40 09:54 6.06
128 3137 SCHMIDT MATHILDE 0:29:40 09:54 6.06
129 3077 MARINI MELISSA 0:29:41 09:55 6.06
130 3074 LANCIERS LIZZY 0:29:41 09:55 6.06
131 3295 TATULLO LUCIE 0:29:45 09:56 6.04
132 3100 JACOBS NATHALIE 0:29:46 09:56 6.04
133 3302 LAURENT ANAIS 0:29:47 09:57 6.03
134 3002 BOUGNET JUDITH 0:29:50 09:58 6.02
135 3114 BRIMIOULLE ISABELLE 0:29:55 09:59 6.01
136 3064 DE LUCA FIONA 0:29:59 10:01 5.99
137 3197 CROIX ROUGE AMBLÈVE 3 CROIX ROUGE AMBLÈVE 3 0:30:04 10:02 5.98
138 3199 CROIX ROUGE AMBLÈVE 5 CROIX ROUGE AMBLÈVE 5 0:30:04 10:02 5.98
139 3128 GILLAIN MALICIA 0:30:08 10:04 5.96
140 3044 PIFFET MÉLANIE 0:30:18 10:07 5.93
141 3160 LEJEUNE JOËLLE 0:30:23 10:09 5.92
142 3171 MAULE ISABELLE 0:30:25 10:09 5.91
143 3374 BLYTH KIM 0:30:33 10:12 5.88
144 3170 LAHAUT DOMINIQUE 0:30:33 10:12 5.88
145 3018 SALVEL ALISON 0:30:35 10:13 5.88
146 3019 CHMIELARCZYK VIRGINIE 0:30:35 10:13 5.88
147 3069 GUISSARD CHRISTINE 0:30:37 10:13 5.87
148 3208 PIRON JULIETTE 0:30:41 10:15 5.86
149 3068 GOVAERE TAMARA 0:30:42 10:15 5.85
150 3067 BOLLAND MARTINE 0:30:45 10:16 5.85
151 3373 GIELEN MÉLISSA 0:30:46 10:16 5.84
152 3372 GRANDRY MARIE 0:30:46 10:16 5.84
153 3195 CROIX ROUGE AMBLÈVE 1 CROIX ROUGE AMBLÈVE 1 0:30:47 10:17 5.84
154 3200 CROIX ROUGE AMBLÈVE 6 CROIX ROUGE AMBLÈVE 6 0:30:47 10:17 5.84
155 3110 DONY MARINE 0:30:56 10:20 5.81
156 3120 ROBIN MURIEL 0:31:11 10:25 5.76
157 3176 SEPULCHRE LINDSAY 0:31:12 10:25 5.76
158 3184 SLUYSMANS CÉCILIA 0:31:30 10:31 5.71
159 3179 CULOT SOPHIE 0:31:32 10:32 5.70
160 3182 SLUYSMANS EMMA 0:31:32 10:32 5.70
161 3180 CULOT CHLOÉ 0:31:32 10:32 5.70
162 3038 ACHINIE MIRABELLE 0:31:34 10:32 5.69
163 3294 HAYEZ FRANÇOISE 0:31:37 10:33 5.68
164 3191 LIVEROTTI ORANA 0:31:37 10:33 5.68
165 3201 HANSENNE EVA 0:31:44 10:36 5.66
166 3198 CROIX ROUGE AMBLÈVE 4 CROIX ROUGE AMBLÈVE 4 0:31:44 10:36 5.66
167 3125 GALERE SARAH 0:31:56 10:40 5.63
168 3183 SLUYSMANS CÉLINE 0:31:56 10:40 5.63
169 3169 ANCIAUX FRANÇOISE 0:31:56 10:40 5.63
170 3143 BOUHRISS AICHA 0:31:57 10:40 5.63
171 3185 SLUYSMANS CÉLINE 0:31:59 10:41 5.62
172 3343 JOURDAN SYLVIE 0:32:01 10:41 5.61
173 3159 OGER STÉPHANIE 0:32:01 10:41 5.61
174 3115 OGER AURÉLIE 0:32:02 10:42 5.61
175 3127 WOYAFFE SOPHIE 0:32:36 10:53 5.51
176 3011 DEBOUT PASCALE 0:32:39 10:54 5.51
177 3076 LONDOT AIMEE 0:32:49 10:57 5.48
178 3075 TROMME EMILIE 0:32:49 10:57 5.48
179 3078 VESPA ORNELLA 0:32:49 10:57 5.48
180 3083 TOPPETS VINCIANE 0:32:56 11:00 5.46
181 3085 ANTOINE NADINE 0:32:56 11:00 5.46
182 3243 FEYTONS WENDY 0:33:01 11:01 5.44
183 3249 CAJOT CÉLINE 0:33:05 11:03 5.43
184 3241 LEGRU ELODIE 0:33:05 11:03 5.43
185 3109 DONY OPHÉLIE 0:33:06 11:03 5.43
186 3108 DONY AUDE 0:33:07 11:03 5.43
187 3236 VIESLET SOPHIA 0:33:20 11:08 5.39
188 3315 BINAME SOLENN 0:33:42 11:15 5.33
189 3181 DENIS ANN-DEBORAH 0:33:50 11:18 5.31
190 3358 KIANKALOU HELENE 0:33:57 11:20 5.29
191 3209 CONSTANT JOSIANE 0:34:01 11:21 5.28
192 3151 CONSTANT JOËLLE 0:34:02 11:22 5.28
193 3090 CONSTANT CHANTAL 0:34:04 11:22 5.28
194 3376 BUCKINX JOELLE 0:34:05 11:23 5.27
195 3293 CAMARDA NAËLIA 0:34:12 11:25 5.26
196 3031 GOORICKX MAGDA 0:34:14 11:26 5.25
197 3030 MARCHESE ANGELA 0:34:15 11:26 5.25
198 3036 LAMBINON LAURENCE 0:34:15 11:26 5.25
199 3129 GILLAIN MELINA 0:34:32 11:32 5.20
200 3132 DEGEE AUDREY 0:34:33 11:32 5.20
201 3299 COX SANDRINE 0:34:37 11:33 5.19
202 3308 VOGELEER MARGOT 0:34:40 11:34 5.18
203 3363 PENDOLIN JOOSEPHINE 0:34:48 11:37 5.16
204 3313 BARNICH MARIANNE 0:35:11 11:45 5.11
205 3222 GARCIA FLORENCE 0:35:13 11:45 5.10
206 3152 FRANCIS YASMINE 0:35:15 11:46 5.10
207 3298 COX RACHEL 0:35:17 11:47 5.09
208 3153 COLLETTE NADINE 0:35:28 11:50 5.07
209 3010 GILLAIN MARINA 0:35:37 11:53 5.05
210 3292 PERAZZOLO ISABELLE 0:35:53 11:59 5.01
211 3344 GODINAS JESSICA 0:36:09 12:04 4.97
212 3334 VOGELEER LISA 0:36:15 12:06 4.96
213 3264 VANDERLINDEN CHRISTELLE 0:36:33 12:12 4.92
214 3260 COLLIN AMANDINE 0:36:35 12:13 4.91
215 3246 CROES JOYCE 0:36:38 12:14 4.91
216 3352 CICCONE MICHELA 0:36:43 12:15 4.90
217 3351 MARULLO ROSALIA 0:36:46 12:16 4.89
218 3017 MANILE EMILIE 0:36:51 12:18 4.88
219 3014 LUCUIX AUDREY 0:36:53 12:19 4.87
220 3005 SNELLINGS MICHELLE 0:37:23 12:29 4.81
221 3140 GRECO JULIANA 0:37:41 12:35 4.77
222 3080 WARNY LAETITIA 0:37:48 12:37 4.76
223 3141 DEIURE JOSIANE 0:37:55 12:39 4.74
224 3045 SABLE BÉNÉDICTE 0:38:07 12:43 4.72
225 3015 RIVARD ARYANNE 0:38:08 12:44 4.71
226 3016 PYPOPS LAETITIA 0:38:08 12:44 4.71
227 3072 SAMIRA SAMIRA 0:40:24 13:29 4.45
228 3070 SANGMI ALVINE 0:40:24 13:29 4.45
229 3073 DIAW DIOR 0:40:24 13:29 4.45
230 3196 CROIX ROUGE AMBLÈVE 2 CROIX ROUGE AMBLÈVE 2 0:41:53 13:59 4.29
231 3134 DANIELS MARIE 0:43:00 14:21 4.18
232 3133 DANIELS CHANTAL 0:43:04 14:23 4.17
233 3378 SAPPRACONE NATHALIE 0:43:49 14:38 4.10
234 3156 GABRIEL CHANTAL 0:44:15 14:46 4.06
235 3024 GEORGES HÉLÈNE 0:44:22 14:49 4.05
236 3023 GONZALEZ ASCENSION 0:44:22 14:49 4.05
237 3025 DE ANGELIS SYLVIA 0:44:23 14:49 4.05
238 3377 LOMBARD NADINE 0:44:25 14:50 4.05
239 3026 MAKA MICHÈLE 0:44:26 14:50 4.05
240 3149 SAUVEUR MADELEINE 0:44:53 14:59 4.00
241 3212 MICCICHE ROSE-MARIE 0:45:02 15:02 3.99
242 3356 HOTI KADRIJE 0:46:41 15:35 3.85
243 3367 VERACHETERT JULIE 0:46:45 15:36 3.84
244 3150 BOOME THARA 0:47:04 15:43 3.82
245 3221 JACOBS REGINA 0:47:04 15:43 3.82
246 3107 VANDERWEYE CHARLÈNE 0:47:25 15:50 3.79
247 3355 CHIRI ZOUBIDA 0:48:00 16:01 3.74
248 3362 NACIRI FATIMA-ZAHRA 0:48:04 16:03 3.74
249 3359 MAKRANE FATIMA 0:48:04 16:03 3.74
250 3353 BENAMEUR HOURIA 0:49:15 16:26 3.65
251 3307 SMEETS STÉPHANIE 0:49:30 16:31 3.63
252 3009 GISBRAND MARIE-FRANCE 0:50:27 16:50 3.56
253 3056 COIBION NANCY 0:51:24 17:09 3.50
254 3057 VAN VARENBERG JENNY 0:51:24 17:09 3.50
255 3166 DEBRUYN EMILIE 1:08:52 22:59 2.61
256 3168 BREULS DELPHINE 1:09:42 23:16 2.58
257 3106 DIAZ-MARTIN SILVIA 1:10:16 23:27 2.56
258 3145 SINOPOLI ENZA 1:10:18 23:28 2.56
259 3144 SINOPOLI MARIE-THERESE 1:10:42 23:36 2.54